Location: Hobi?a Gr?di?te
(45.4833°N, 22.7833°E)
Time: 11:13:23
(UTC+00:00)

Cosmos 540 Rocket - Pass Details

Date: 28 January 2023
Orbit: 740 x 751 km, 74.1° (Epoch: 20 March)

Event Time Altitude Azimuth Distance (km) Brightness Sun altitude
Rises 17:50:42 0° 341° (NNW) 3,209 6.9 -24.8°
Reaches altitude 10° 17:53:08 10° 346° (NNW) 2,279 6.1 -25.2°
Enters shadow 17:56:22 36° 6° (N) 1,177 4.3 -25.8°
